| time (UTC) | temp F | wind direction | speed knots | gust knots | rain 1hr in | rain 24hr in | rain mn in | humidity % | barometer mb |
| 20260906234559 | 79 | 313 | 0.9 | 6.1 | 0.00 | 0.00 | 0.00 | 20 | 1012.8 |
| 20260906233100 | 79 | 292 | 1.7 | 7.0 | 0.00 | 0.00 | 0.00 | 20 | 1012.9 |
| 20260906231557 | 80 | 176 | 0.0 | 8.7 | 0.00 | 0.00 | 0.00 | 21 | 1013.0 |
| 20260906230058 | 80 | 0 | 0.9 | 5.2 | 0.00 | 0.00 | 0.00 | 20 | 1013.1 |
| 20260906224610 | 80 | 271 | 1.7 | 8.7 | 0.00 | 0.00 | 0.00 | 19 | 1013.2 |
| 20260906223054 | 81 | 81 | 0.9 | 7.0 | 0.00 | 0.00 | 0.00 | 17 | 1013.4 |
| 20260906221554 | 82 | 293 | 1.7 | 9.6 | 0.00 | 0.00 | 0.00 | 17 | 1013.4 |
| 20260906220121 | 84 | 114 | 1.7 | 7.8 | 0.00 | 0.00 | 0.00 | 17 | 1013.5 |
| 20260906214549 | 84 | 247 | 1.7 | 8.7 | 0.00 | 0.00 | 0.00 | 17 | 1013.6 |
| 20260906213100 | 83 | 222 | 2.6 | 9.6 | 0.00 | 0.00 | 0.00 | 16 | 1013.6 |
| 20260906211610 | 84 | 285 | 2.6 | 5.2 | 0.00 | 0.00 | 0.00 | 17 | 1013.6 |
| 20260906210110 | 84 | 271 | 0.9 | 7.0 | 0.00 | 0.00 | 0.00 | 18 | 1013.9 |
| 20260906204552 | 84 | 64 | 1.7 | 9.6 | 0.00 | 0.00 | 0.00 | 17 | 1014.2 |
| 20260906203050 | 83 | 106 | 2.6 | 10.4 | 0.00 | 0.00 | 0.00 | 17 | 1014.4 |
| 20260906201549 | 83 | 41 | 3.5 | 14.8 | 0.00 | 0.00 | 0.00 | 19 | 1014.6 |
| 20260906200051 | 83 | 257 | 2.6 | 10.4 | 0.00 | 0.00 | 0.00 | 18 | 1014.4 |
| 20260906194614 | 84 | 312 | 1.7 | 7.8 | 0.00 | 0.00 | 0.00 | 18 | 1014.4 |
| 20260906193100 | 84 | 271 | 1.7 | 7.0 | 0.00 | 0.00 | 0.00 | 18 | 1014.4 |
| 20260906191549 | 83 | 103 | 1.7 | 7.0 | 0.00 | 0.00 | 0.00 | 21 | 1014.6 |
| 20260906190100 | 83 | 254 | 0.9 | 9.6 | 0.00 | 0.00 | 0.00 | 19 | 1015.0 |
| 20260906184607 | 82 | 105 | 0.9 | 7.8 | 0.00 | 0.00 | 0.00 | 21 | 1015.4 |
| 20260906183102 | 82 | 273 | 0.9 | 8.7 | 0.00 | 0.00 | 0.00 | 22 | 1015.7 |
| 20260906181551 | 81 | 103 | 1.7 | 5.2 | 0.00 | 0.00 | 0.00 | 24 | 1015.8 |
| 20260906180058 | 78 | 131 | 0.0 | 2.6 | 0.00 | 0.00 | 0.00 | 32 | 1016.0 |
| 20260906174552 | 75 | 0 | 0.0 | 1.7 | 0.00 | 0.00 | 0.00 | 40 | 1016.3 |
| 20260906173052 | 74 | 0 | 0.0 | 0.9 | 0.00 | 0.00 | 0.00 | 41 | 1016.6 |
| 20260906171603 | 72 | 0 | 0.0 | 0.9 | 0.00 | 0.00 | 0.00 | 44 | 1016.7 |
| 20260906170056 | 71 | 266 | 0.0 | 0.9 | 0.00 | 0.00 | 0.00 | 45 | 1016.8 |
| 20260906164557 | 69 | 0 | 0.0 | 0.9 | 0.00 | 0.00 | 0.00 | 48 | 1017.1 |
| 20260906163053 | 68 | 0 | 0.0 | 0.9 | 0.00 | 0.00 | 0.00 | 46 | 1017.1 |
| 20260906161600 | 68 | 0 | 0.0 | 0.0 | 0.00 | 0.00 | 0.00 | 48 | 1017.2 |
| 20260906160058 | 67 | 0 | 0.0 | 0.0 | 0.00 | 0.00 | 0.00 | 48 | 1017.3 |
| 20260906154555 | 65 | 0 | 0.0 | 0.0 | 0.00 | 0.00 | 0.00 | 51 | 1017.5 |
| 20260906153056 | 63 | 0 | 0.0 | 0.0 | 0.00 | 0.00 | 0.00 | 53 | 1017.6 |
| 20260906151549 | 61 | 0 | 0.0 | 0.0 | 0.00 | 0.00 | 0.00 | 57 | 1017.6 |
| 20260906144604 | 57 | 0 | 0.0 | 0.0 | 0.00 | 0.00 | 0.00 | 65 | 1017.5 |
| 20260906143051 | 53 | 0 | 0.0 | 0.0 | 0.00 | 0.00 | 0.00 | 72 | 1017.6 |
| 20260906141554 | 51 | 0 | 0.0 | 0.0 | 0.00 | 0.00 | 0.00 | 73 | 1017.4 |
| 20260906140108 | 50 | 0 | 0.0 | 0.0 | 0.00 | 0.00 | 0.00 | 72 | 1017.3 |
| 20260906134554 | 49 | 0 | 0.0 | 0.0 | 0.00 | 0.00 | 0.00 | 71 | 1017.3 |
| 20260906133054 | 49 | 0 | 0.0 | 0.0 | 0.00 | 0.00 | 0.00 | 72 | 1017.3 |
| 20260906131550 | 48 | 0 | 0.0 | 0.9 | 0.00 | 0.00 | 0.00 | 74 | 1017.2 |
| 20260906130051 | 47 | 0 | 0.0 | 0.9 | 0.00 | 0.00 | 0.00 | 76 | 1017.1 |
| 20260906124554 | 47 | 0 | 0.0 | 0.0 | 0.00 | 0.00 | 0.00 | 76 | 1017.2 |
| 20260906123054 | 47 | 0 | 0.0 | 0.0 | 0.00 | 0.00 | 0.00 | 75 | 1017.1 |
| 20260906121552 | 48 | 0 | 0.0 | 0.0 | 0.00 | 0.00 | 0.00 | 75 | 1016.8 |
| 20260906120053 | 49 | 0 | 0.0 | 0.0 | 0.00 | 0.00 | 0.00 | 73 | 1016.7 |
| 20260906114555 | 49 | 0 | 0.0 | 0.0 | 0.00 | 0.00 | 0.00 | 72 | 1016.8 |
| 20260906113059 | 50 | 0 | 0.0 | 0.9 | 0.00 | 0.00 | 0.00 | 71 | 1016.7 |
| 20260906111551 | 50 | 0 | 0.0 | 0.0 | 0.00 | 0.00 | 0.00 | 70 | 1016.7 |
| 20260906110050 | 52 | 0 | 0.0 | 0.0 | 0.00 | 0.00 | 0.00 | 68 | 1016.7 |
| 20260906104602 | 52 | 0 | 0.0 | 0.0 | 0.00 | 0.00 | 0.00 | 66 | 1016.5 |
| 20260906103053 | 53 | 0 | 0.0 | 0.0 | 0.00 | 0.00 | 0.00 | 64 | 1016.5 |
| 20260906101553 | 53 | 0 | 0.0 | 0.9 | 0.00 | 0.00 | 0.00 | 66 | 1016.3 |
| 20260906100051 | 54 | 0 | 0.0 | 0.9 | 0.00 | 0.00 | 0.00 | 66 | 1016.3 |
| 20260906094636 | 55 | 0 | 0.0 | 0.9 | 0.00 | 0.00 | 0.00 | 63 | 1016.4 |
| 20260906093104 | 56 | 0 | 0.0 | 0.9 | 0.00 | 0.00 | 0.00 | 59 | 1016.2 |
| 20260906091551 | 56 | 0 | 0.0 | 0.0 | 0.00 | 0.00 | 0.00 | 58 | 1016.3 |
| 20260906090052 | 56 | 0 | 0.0 | 0.9 | 0.00 | 0.00 | 0.00 | 58 | 1016.1 |
| 20260906084557 | 55 | 0 | 0.0 | 0.0 | 0.00 | 0.00 | 0.00 | 60 | 1015.8 |
| 20260906083055 | 56 | 0 | 0.0 | 0.0 | 0.00 | 0.00 | 0.00 | 61 | 1015.6 |
| 20260906081556 | 55 | 0 | 0.0 | 0.0 | 0.00 | 0.00 | 0.00 | 59 | 1015.3 |
| 20260906080054 | 56 | 0 | 0.0 | 0.0 | 0.00 | 0.00 | 0.00 | 56 | 1015.4 |
| 20260906074554 | 56 | 0 | 0.0 | 0.0 | 0.00 | 0.00 | 0.00 | 55 | 1015.2 |
| 20260906073055 | 57 | 0 | 0.0 | 0.0 | 0.00 | 0.00 | 0.00 | 52 | 1015.0 |
| 20260906071553 | 58 | 0 | 0.0 | 0.0 | 0.00 | 0.00 | 0.00 | 48 | 1014.9 |
| 20260906070052 | 60 | 0 | 0.0 | 0.9 | 0.00 | 0.00 | 0.00 | 42 | 1014.7 |
| 20260906064549 | 62 | 0 | 0.0 | 1.7 | 0.00 | 0.00 | 0.00 | 37 | 1014.7 |
| 20260906063057 | 66 | 0 | 0.0 | 0.9 | 0.00 | 0.00 | 0.00 | 33 | 1014.7 |
| 20260906061556 | 69 | 0 | 0.0 | 2.6 | 0.00 | 0.00 | 0.00 | 28 | 1014.6 |
| 20260906060053 | 69 | 142 | 0.0 | 3.5 | 0.00 | 0.00 | 0.00 | 27 | 1014.5 |
| 20260906054601 | 70 | 214 | 0.0 | 3.5 | 0.00 | 0.00 | 0.00 | 27 | 1014.4 |
| 20260906053055 | 70 | 150 | 0.9 | 4.3 | 0.00 | 0.00 | 0.00 | 26 | 1014.4 |
| 20260906051552 | 69 | 173 | 0.0 | 3.5 | 0.00 | 0.00 | 0.00 | 27 | 1014.6 |
| 20260906050107 | 66 | 0 | 0.0 | 3.5 | 0.00 | 0.00 | 0.00 | 30 | 1014.7 |
| 20260906044557 | 66 | 0 | 0.0 | 0.9 | 0.00 | 0.00 | 0.00 | 30 | 1015.0 |
| 20260906043056 | 69 | 0 | 0.0 | 0.9 | 0.00 | 0.00 | 0.00 | 29 | 1015.2 |
| 20260906041554 | 70 | 0 | 0.0 | 2.6 | 0.00 | 0.00 | 0.00 | 27 | 1015.2 |
| 20260906040114 | 69 | 132 | 0.0 | 2.6 | 0.00 | 0.00 | 0.00 | 27 | 1015.3 |
| 20260906034559 | 69 | 0 | 0.0 | 0.9 | 0.00 | 0.00 | 0.00 | 26 | 1015.4 |
| 20260906033057 | 68 | 0 | 0.0 | 0.9 | 0.00 | 0.00 | 0.00 | 27 | 1015.5 |
| 20260906031555 | 70 | 0 | 0.0 | 0.9 | 0.00 | 0.00 | 0.00 | 27 | 1015.6 |
| 20260906030053 | 71 | 126 | 0.0 | 0.9 | 0.00 | 0.00 | 0.00 | 26 | 1015.7 |
| 20260906024558 | 71 | 0 | 0.0 | 1.7 | 0.00 | 0.00 | 0.00 | 25 | 1015.7 |
| 20260906023054 | 72 | 129 | 0.0 | 1.7 | 0.00 | 0.00 | 0.00 | 25 | 1015.5 |
| 20260906021602 | 73 | 0 | 0.0 | 0.9 | 0.00 | 0.00 | 0.00 | 24 | 1015.5 |
| 20260906020056 | 75 | 0 | 0.0 | 2.6 | 0.00 | 0.00 | 0.00 | 23 | 1015.3 |
| 20260906014559 | 76 | 124 | 0.0 | 6.1 | 0.00 | 0.00 | 0.00 | 22 | 1015.4 |
| 20260906013054 | 77 | 172 | 0.0 | 2.6 | 0.00 | 0.00 | 0.00 | 21 | 1015.5 |
| 20260906011554 | 78 | 271 | 1.7 | 5.2 | 0.00 | 0.00 | 0.00 | 20 | 1015.5 |
| 20260906010051 | 79 | 265 | 0.9 | 6.1 | 0.00 | 0.00 | 0.00 | 19 | 1015.5 |
| 20260906004555 | 79 | 0 | 0.0 | 1.7 | 0.00 | 0.00 | 0.00 | 21 | 1015.5 |
| 20260906003051 | 80 | 314 | 0.0 | 4.3 | 0.00 | 0.00 | 0.00 | 20 | 1015.5 |
| 20260906001559 | 80 | 202 | 0.0 | 5.2 | 0.00 | 0.00 | 0.00 | 19 | 1015.4 |
| 20260906000058 | 81 | 0 | 0.0 | 3.5 | 0.00 | 0.00 | 0.00 | 20 | 1015.4 |